Location: Newark
(36.3167°N, 139.0000°E)
Time: 14:14:38
(UTC+00:00)

LightSail 2 - Visible Passes

Search period start: 17 September 2019 00:00
Search period end: 27 September 2019 00:00
Orbit: 699 x 732 km, 24.0° (Epoch: 15 September)

Date Brightness Start Highest point End Pass type
(mag) Time Alt. Az. Time Alt. Az. Time Alt. Az.
19 Sep 7.5 19:44:14 10° S 19:46:16 12° SSE 19:48:19 10° SE visible
21 Sep 7.2 19:33:54 10° SSW 19:36:59 16° S 19:40:04 10° SE visible
22 Sep 7.2 18:39:21 14° S 18:39:56 14° SSE 18:42:29 10° SE visible
23 Sep 7.0 19:24:41 12° SW 19:27:41 19° S 19:31:12 10° SE visible
24 Sep 7.0 18:30:58 17° SSE 18:30:58 17° SSE 18:33:53 10° SE visible
25 Sep 6.8 19:16:16 16° SSW 19:18:22 20° S 19:22:01 10° SE visible
26 Sep 7.1 18:22:33 18° SSE 18:22:33 18° SSE 18:24:51 10° SE visible
26 Sep 7.0 20:02:49 10° SW 20:06:08 17° S 20:09:26 10° SSE visible
